EW3923 Weather Reports


time (UTC)temp
C
wind
direction
speed
KPH
gust
KPH
rain 1hr
cm
rain 24hr
cm
rain mn
cm
humidity
%
barometer
mb
20260505233915 17 0.0 1.6 0.00 0.00 0.00 68 1016.0
20260505232935 17 90 1.6 3.2 0.00 0.00 0.00 67 1016.1
20260505231916 17 0.0 1.6 0.00 0.00 0.00 67 1016.2
20260505230915 17 0.0 0.0 0.00 0.00 0.00 67 1016.1
20260505225919 16 338 1.6 3.2 0.00 0.00 0.00 68 1016.1
20260505224916 16 0.0 1.6 0.00 0.00 0.00 68 1016.2
20260505223915 16 338 1.6 3.2 0.00 0.00 0.00 68 1016.2
20260505222936 16 338 1.6 3.2 0.00 0.00 0.00 68 1016.3
20260505221935 16 23 3.2 6.4 0.00 0.00 0.00 68 1016.3
20260505220916 16 0.0 1.6 0.00 0.00 0.00 68 1016.5
20260505215915 16 23 3.2 4.8 0.00 0.00 0.00 69 1016.5
20260505214916 16 23 1.6 4.8 0.00 0.00 0.00 69 1016.6
20260505213915 16 23 1.6 3.2 0.00 0.00 0.00 68 1016.5
20260505212918 16 0 3.2 6.4 0.00 0.00 0.00 68 1016.7
20260505211915 17 0 4.8 8.0 0.00 0.00 0.00 66 1016.7
20260505210915 17 0 1.6 3.2 0.00 0.00 0.00 67 1016.6
20260505205915 17 0.0 1.6 0.00 0.00 0.00 68 1016.6
20260505204915 17 0.0 1.6 0.00 0.00 0.00 69 1016.5
20260505203915 16 0.0 3.2 0.00 0.00 0.00 70 1016.5
20260505202940 16 338 1.6 3.2 0.00 0.00 0.00 70 1016.5
20260505201915 16 338 1.6 3.2 0.00 0.00 0.00 70 1016.6
20260505200915 16 0.0 1.6 0.00 0.00 0.00 70 1016.8
20260505195940 16 0.0 0.0 0.00 0.00 0.00 70 1016.8
20260505194935 16 293 3.2 4.8 0.00 0.00 0.00 69 1016.8
20260505193915 16 293 1.6 3.2 0.00 0.00 0.00 69 1016.9
20260505192915 16 270 1.6 4.8 0.00 0.00 0.00 70 1016.9
20260505191915 16 0.0 1.6 0.00 0.00 0.00 71 1016.9
20260505190915 16 315 1.6 1.6 0.00 0.00 0.00 72 1016.7
20260505185955 16 270 3.2 4.8 0.00 0.00 0.00 73 1016.7
20260505184915 15 0.0 3.2 0.00 0.00 0.00 73 1016.8
20260505183915 15 0.0 1.6 0.00 0.00 0.00 73 1016.8
20260505182935 15 270 3.2 6.4 0.00 0.00 0.00 74 1016.7
20260505181935 15 270 3.2 4.8 0.00 0.00 0.00 73 1016.9
20260505180915 15 0.0 1.6 0.00 0.00 0.00 72 1016.7
20260505175915 15 270 1.6 4.8 0.00 0.00 0.00 72 1016.7
20260505174915 15 0.0 1.6 0.00 0.00 0.00 72 1016.6
20260505173915 15 0.0 1.6 0.00 0.00 0.00 72 1016.6
20260505172915 15 248 1.6 3.2 0.00 0.00 0.00 72 1016.4
20260505171915 14 248 1.6 3.2 0.00 0.00 0.00 72 1016.3
20260505170915 14 248 1.6 4.8 0.00 0.00 0.00 73 1016.2
20260505165915 14 0.0 1.6 0.00 0.00 0.00 73 1016.3
20260505164915 13 0.0 0.0 0.00 0.00 0.00 74 1016.2
20260505163915 13 0.0 0.0 0.00 0.00 0.00 74 1016.2
20260505162915 13 0.0 1.6 0.00 0.00 0.00 75 1016.2
20260505161935 13 0.0 1.6 0.00 0.00 0.00 76 1016.1
20260505160915 13 225 1.6 3.2 0.00 0.00 0.00 77 1016.1
20260505152917 12 0.0 1.6 0.00 0.00 0.00 80 1016.0
20260505151917 12 225 3.2 6.4 0.00 0.00 0.00 81 1015.9
20260505150917 12 0.0 1.6 0.00 0.00 0.00 81 1015.9
20260505125037 11 0.0 0.0 0.00 0.00 0.00 81 1015.2
20260505123916 11 0.0 0.0 0.00 0.00 0.00 81 1015.3
20260505122917 11 0.0 0.0 0.00 0.00 0.00 80 1015.3
20260505121917 11 0.0 0.0 0.00 0.00 0.00 80 1015.4
20260505120936 11 0.0 0.0 0.00 0.00 0.00 80 1015.4
20260505115916 11 0.0 0.0 0.00 0.00 0.00 79 1015.3
20260505114916 11 0.0 0.0 0.00 0.00 0.00 79 1015.4
20260505113916 11 0.0 0.0 0.00 0.00 0.00 79 1015.5
20260505112916 11 0.0 0.0 0.00 0.00 0.00 78 1015.4
20260505111917 11 0.0 0.0 0.00 0.00 0.00 78 1015.4
20260505110916 11 0.0 0.0 0.00 0.00 0.00 77 1015.4
20260505101916 12 0.0 0.0 0.00 0.00 0.00 75 1015.4
20260505100916 12 0.0 0.0 0.00 0.00 0.00 74 1015.5
20260505095936 12 0.0 0.0 0.00 0.00 0.00 74 1015.5
20260505094916 12 0.0 0.0 0.00 0.00 0.00 73 1015.6
20260505093916 12 0.0 3.2 0.00 0.00 0.00 73 1015.7
20260505092916 12 270 1.6 3.2 0.00 0.00 0.00 73 1015.8
20260505091916 12 270 1.6 4.8 0.00 0.00 0.00 72 1015.5
20260505090916 12 270 1.6 3.2 0.00 0.00 0.00 72 1015.7
20260505085916 12 0.0 1.6 0.00 0.00 0.00 71 1015.8
20260505084916 12 293 1.6 4.8 0.00 0.00 0.00 71 1015.9
20260505083916 12 315 3.2 4.8 0.00 0.00 0.00 71 1016.1
20260505082936 12 293 1.6 4.8 0.00 0.00 0.00 72 1016.3
20260505081916 12 0.0 0.0 0.00 0.00 0.00 72 1016.2
20260505080916 12 293 1.6 6.4 0.00 0.00 0.00 73 1016.2
20260505075916 12 293 3.2 9.7 0.00 0.00 0.00 75 1016.3
20260505074936 12 293 1.6 4.8 0.00 0.00 0.00 76 1016.3
20260505073916 12 293 1.6 4.8 0.00 0.00 0.00 77 1016.2
20260505072916 12 0.0 1.6 0.00 0.00 0.00 77 1016.2
20260505071916 12 315 3.2 6.4 0.00 0.00 0.00 77 1016.2
20260505070936 12 0.0 0.0 0.00 0.00 0.00 78 1016.1
20260505065916 12 0.0 1.6 0.00 0.00 0.00 78 1016.0
20260505064937 12 0.0 3.2 0.00 0.00 0.00 78 1016.1
20260505063916 13 0.0 0.0 0.00 0.00 0.00 78 1016.0
20260505062916 13 293 1.6 3.2 0.00 0.00 0.00 78 1015.9
20260505061916 13 293 1.6 4.8 0.00 0.00 0.00 77 1015.8
20260505060917 13 0.0 3.2 0.00 0.00 0.00 77 1015.7
20260505055916 13 0.0 1.6 0.00 0.00 0.00 76 1015.8
20260505054916 13 0.0 3.2 0.00 0.00 0.00 76 1015.9
20260505053916 13 293 1.6 4.8 0.00 0.00 0.00 75 1015.9
20260505052916 13 315 1.6 4.8 0.00 0.00 0.00 75 1016.1
20260505051916 13 315 1.6 1.6 0.00 0.00 0.00 75 1016.2
20260505050916 13 315 1.6 3.2 0.00 0.00 0.00 74 1016.4
20260505040916 14 293 3.2 8.0 0.00 0.00 0.00 70 1015.8
20260505035916 14 0.0 1.6 0.00 0.00 0.00 68 1015.4
20260505034916 14 293 3.2 4.8 0.00 0.00 0.00 67 1015.4
20260505033916 15 293 3.2 4.8 0.00 0.00 0.00 66 1015.2
20260505032917 15 270 1.6 4.8 0.00 0.00 0.00 65 1014.9
20260505031916 15 315 1.6 3.2 0.00 0.00 0.00 64 1014.9
20260505030916 15 315 3.2 3.2 0.00 0.00 0.00 63 1014.8
20260505025916 15 315 1.6 3.2 0.00 0.00 0.00 62 1014.9
20260505024936 15 315 1.6 4.8 0.00 0.00 0.00 62 1014.8
20260505023936 15 338 3.2 4.8 0.00 0.00 0.00 61 1014.8
20260505022916 15 315 1.6 3.2 0.00 0.00 0.00 61 1014.9
20260505021916 16 270 1.6 3.2 0.00 0.00 0.00 60 1014.6
20260505020916 16 293 3.2 6.4 0.00 0.00 0.00 60 1014.8
20260505015916 16 338 4.8 9.7 0.00 0.00 0.00 59 1014.6
20260505014916 16 270 1.6 9.7 0.00 0.00 0.00 59 1014.7
20260505013916 17 315 4.8 6.4 0.00 0.00 0.00 59 1014.7
20260505012916 17 23 1.6 6.4 0.00 0.00 0.00 59 1014.8
20260505011916 17 315 4.8 8.0 0.00 0.00 0.00 59 1014.8
20260505010916 17 270 3.2 4.8 0.00 0.00 0.00 60 1014.9
20260505005916 17 338 3.2 4.8 0.00 0.00 0.00 60 1015.0
20260505004916 17 293 4.8 9.7 0.00 0.00 0.00 61 1015.1
20260505003916 17 293 3.2 8.0 0.00 0.00 0.00 62 1015.1
20260505002915 17 293 1.6 4.8 0.00 0.00 0.00 64 1015.1
20260505001936 16 0.0 0.0 0.00 0.00 0.00 65 1015.1
20260505000915 16 248 1.6 3.2 0.00 0.00 0.00 64 1015.0
20260504235915 16 248 1.6 3.2 0.00 0.00 0.00 64 1015.1
20260504234916 16 225 1.6 4.8 0.00 0.00 0.00 63 1015.1